Theta_e
320 332 313 306 299 299 297 306 317 319 320 327 325 322 318 317 312 305 332 341 351 354 352 354 359 357 357 358 359 359 358 358 357 356 356 356 355 355 355 355 355 354 355 355 355 355 355 353 352
314 308 303 298 293 290 293 306 312 317 324 326 326 323 317 318 333 333 334 347 353 354 350 351 360 358 357 358 359 358 358 357 356 356 356 356 356 356 355 355 355 355 355 355 354 354 354 354 355
310 306 300 294 289 289 292 303 312 317 323 324 321 326 321 323 334 334 342 350 353 351 348 351 360 359 357 358 359 358 357 356 356 356 357 357 356 356 356 355 354 354 354 354 354 353 352 352 352
305 302 297 293 288 294 297 305 314 315 322 324 321 319 325 337 335 341 350 351 349 349 348 355 360 360 357 358 358 358 357 356 356 356 357 357 357 357 357 356 355 353 352 351 351 352 352 353 353
299 295 290 289 288 294 297 300 307 317 320 321 323 318 322 340 347 349 349 349 347 349 348 354 361 359 357 358 358 358 357 357 357 356 355 355 355 355 354 354 354 354 354 353 353 353 354 354 355
297 294 289 287 290 295 297 299 312 318 320 320 319 319 327 342 344 347 349 346 348 349 351 353 359 359 359 358 358 358 358 357 357 356 355 354 353 352 351 351 350 351 351 352 353 354 355 355 354
295 291 290 287 291 293 299 310 312 317 319 319 322 317 328 335 344 348 349 348 349 351 352 352 353 355 357 359 359 358 358 357 357 357 355 353 352 350 350 351 352 353 353 352 352 353 354 353 351
294 292 291 288 291 300 302 319 318 319 319 327 326 319 322 333 344 347 348 348 349 348 348 349 351 352 351 353 358 357 357 356 356 354 353 352 351 350 350 354 355 354 354 352 352 353 354 352 351
295 291 288 291 295 302 311 316 321 322 321 321 324 323 332 341 343 342 342 343 344 346 345 347 348 350 349 349 352 357 356 355 354 353 353 352 346 345 349 351 355 354 354 352 352 353 352 351 350
294 289 292 294 295 301 307 315 320 319 317 318 326 333 338 340 338 336 336 337 339 342 345 346 347 348 347 351 348 348 347 347 348 347 345 345 342 341 344 348 350 352 354 354 354 353 351 349 341
291 293 294 297 297 297 305 313 317 314 312 316 320 328 335 336 335 334 334 333 331 338 343 345 346 346 347 345 344 345 344 344 345 345 343 341 341 338 338 337 338 340 343 347 349 343 341 339 338
297 296 296 297 299 295 307 313 316 320 319 326 324 330 331 331 330 332 334 334 333 337 340 343 344 343 342 341 343 344 343 343 343 343 343 340 337 336 335 335 338 338 339 339 339 337 336 334 334
294 295 296 298 295 296 308 310 317 321 325 328 329 329 329 328 328 330 332 334 335 334 336 336 342 341 341 339 341 343 342 343 343 343 343 341 339 336 335 335 337 339 339 338 337 335 332 331 332
297 296 296 296 298 302 303 310 318 323 325 324 324 323 324 324 326 327 328 329 333 337 338 340 337 339 338 337 338 340 341 342 343 343 343 342 340 340 338 335 335 337 339 339 337 336 334 331 331
296 298 297 295 295 295 299 297 314 322 322 320 320 320 321 321 323 323 326 328 331 332 332 329 334 336 336 335 336 340 339 341 340 341 342 342 341 340 340 339 340 340 340 339 337 336 336 336 338
293 292 291 294 297 297 296 290 317 323 318 316 318 318 318 319 319 321 323 325 328 328 328 331 332 333 335 335 336 339 339 338 339 341 342 343 343 342 342 341 341 343 342 340 338 337 338 338 339
292 289 289 294 296 295 297 303 318 320 316 313 313 314 316 316 316 318 319 321 323 323 325 326 328 328 331 332 334 340 342 345 344 344 344 345 344 344 343 342 342 342 341 339 337 337 337 337 339
289 288 290 290 295 308 310 309 313 315 314 312 311 311 312 312 313 315 317 318 320 320 322 323 325 326 332 334 335 338 340 339 339 340 340 341 345 347 346 343 343 342 338 338 339 337 338 339 337
294 292 291 294 297 308 307 309 310 311 310 309 309 309 309 310 313 313 314 315 316 317 317 319 320 321 327 331 332 336 334 333 334 335 336 339 341 341 343 342 341 341 340 339 338 339 338 336 336
295 292 291 294 298 306 305 307 309 309 308 308 309 308 307 308 308 310 310 311 312 313 314 316 318 320 321 324 331 334 334 332 333 334 335 335 336 339 341 339 337 339 337 334 334 334 332 334 335
292 292 291 292 297 306 302 300 305 308 308 309 308 308 308 306 306 307 307 308 310 311 312 314 315 318 319 320 323 324 325 326 326 326 327 330 330 332 336 338 336 334 336 335 333 331 330 327 331
289 295 295 294 291 287 291 284 301 304 304 305 305 305 305 306 307 307 307 307 308 310 312 312 313 314 317 318 318 318 318 319 321 324 325 326 328 329 331 331 334 334 333 332 333 332 330 330 328
293 296 294 293 288 286 287 284 284 303 301 302 304 305 306 306 307 306 307 307 309 310 311 311 310 310 311 313 316 316 314 316 317 317 317 319 322 323 323 327 328 328 330 330 331 331 329 330 330
298 294 291 287 286 282 285 286 286 300 302 303 305 306 307 307 308 308 309 309 310 310 308 308 306 306 308 310 310 310 309 309 309 310 311 312 315 317 318 320 322 324 327 329 329 329 330 332 329
294 289 283 283 281 282 287 287 288 299 305 307 306 307 308 308 308 308 308 308 308 308 308 306 304 303 305 307 308 308 308 308 308 308 309 309 310 312 314 316 318 320 321 325 329 329 328 328 327
289 289 284 280 280 282 289 286 292 305 308 309 308 308 308 308 308 307 309 309 308 308 307 304 303 304 305 306 307 308 308 308 308 308 309 309 310 312 314 315 316 317 319 321 325 325 325 329 328
291 287 289 285 283 282 285 294 301 306 306 307 307 307 307 309 310 309 309 308 307 308 307 304 304 304 306 307 307 308 308 308 309 309 310 310 311 313 312 313 313 315 317 320 322 323 320 322 321
293 294 287 284 280 279 282 287 290 300 303 305 305 306 306 307 308 307 306 307 307 306 305 304 305 305 306 307 307 308 309 309 309 309 309 309 310 311 312 312 312 313 314 316 319 320 319 319 317
291 289 288 286 284 281 279 284 294 300 305 305 306 307 306 306 306 306 306 307 306 305 303 304 304 304 305 306 307 308 308 309 309 309 309 309 309 310 311 312 312 312 313 314 314 315 317 314 315
294 290 289 285 283 284 283 285 296 300 304 306 306 308 308 307 306 306 307 307 305 305 304 303 303 303 305 305 306 307 308 308 307 307 308 309 309 309 310 311 312 312 312 312 312 312 312 312 312
Wind_Speed
4 5 2 4 5 6 3 7 3 2 2 2 3 4 2 4 2 3 1 1 13 14 9 10 13 14 16 18 17 17 16 15 15 13 13 13 12 12 12 11 10 10 10 10 9 9 9 9 9
4 3 5 3 6 3 6 5 7 5 3 4 3 4 4 2 3 5 5 4 14 13 7 6 13 12 14 16 16 16 16 15 14 14 13 12 12 11 11 10 10 9 9 8 7 7 6 5 6
3 3 4 5 4 5 5 5 8 4 2 4 3 2 2 2 4 7 4 10 12 10 6 7 13 11 12 12 13 12 12 11 11 11 11 10 10 9 9 8 7 7 7 6 6 5 3 2 2
2 5 5 5 4 7 6 6 5 1 3 4 2 4 5 7 6 6 12 12 11 10 6 9 11 11 12 13 12 11 10 10 9 8 8 8 7 7 6 6 5 4 3 3 3 2 1 2 2
5 4 4 2 3 6 5 5 4 4 5 3 3 1 4 5 8 12 14 12 11 8 5 6 11 11 12 13 12 11 10 9 8 7 6 5 5 4 4 3 2 1 1 2 2 3 4 5 5
4 4 5 2 5 5 5 6 5 5 4 3 5 4 3 4 7 10 9 8 8 10 5 5 9 9 9 11 11 10 8 7 7 6 5 4 2 2 1 1 2 3 4 5 6 5 5 7 7
6 5 3 2 5 6 4 5 4 5 5 3 6 5 2 5 7 11 10 9 8 6 6 4 4 6 8 8 9 9 8 7 7 6 5 4 3 2 2 3 4 5 5 6 8 8 8 8 8
6 5 1 4 3 2 4 2 1 4 4 3 1 4 5 7 12 12 11 10 7 5 5 5 5 5 4 5 9 8 7 7 5 4 3 3 3 3 3 3 4 6 7 9 9 9 9 9 9
3 6 2 5 6 6 4 4 3 1 7 6 6 3 11 15 14 13 12 10 8 6 6 6 6 5 6 6 7 10 11 10 8 6 5 3 1 2 2 3 5 6 8 10 9 9 10 11 11
6 4 5 3 3 2 3 5 4 5 6 6 10 12 13 11 10 12 11 11 11 10 6 2 2 5 3 2 1 3 3 2 3 3 3 2 2 3 4 5 7 7 9 10 10 10 11 10 4
3 4 4 3 2 1 2 6 3 2 6 3 8 12 10 8 4 4 5 2 3 6 8 8 5 7 4 2 1 1 2 1 2 5 4 3 2 2 2 2 2 3 5 3 5 4 3 5 4
2 0 3 2 2 2 4 5 7 9 3 4 8 9 8 8 6 2 2 3 4 6 7 5 7 5 4 1 0 0 1 1 2 3 3 2 2 3 3 2 3 3 2 4 3 3 4 5 5
1 2 3 4 2 4 11 7 8 7 6 10 14 15 11 9 8 8 6 7 2 1 2 4 4 4 4 5 3 3 4 3 3 2 3 2 3 4 3 4 3 3 3 3 4 4 4 5 5
3 4 3 3 3 1 11 4 6 2 4 13 14 12 11 12 10 9 10 9 8 6 6 6 6 6 6 6 6 4 3 2 3 3 4 4 4 4 3 4 4 5 3 3 4 4 4 5 4
1 3 6 2 2 4 9 8 7 6 5 13 11 10 11 12 12 11 10 10 9 7 7 8 7 6 6 7 6 4 4 3 4 4 5 6 6 6 7 5 5 5 2 4 3 4 4 4 5
5 6 3 4 4 3 4 3 4 3 5 9 10 9 9 11 11 10 11 11 10 9 10 8 9 8 5 2 3 2 2 2 3 4 3 5 5 6 6 6 6 5 1 1 2 3 6 4 4
8 1 2 7 6 2 5 6 5 8 8 8 7 8 7 8 11 10 10 9 9 7 8 9 9 9 8 6 4 4 4 4 4 3 3 4 4 6 6 6 6 4 2 2 3 2 2 3 4
1 2 1 3 7 11 14 9 9 9 9 6 6 7 7 8 8 6 9 8 7 8 7 7 7 9 6 3 4 5 5 5 5 4 4 6 4 4 5 6 4 4 3 2 1 1 2 1 1
4 4 3 3 3 10 7 9 7 5 7 6 6 6 5 5 4 5 6 6 6 7 9 11 11 11 7 5 3 3 4 4 4 5 6 7 6 8 5 1 3 5 6 5 4 3 3 1 0
4 3 2 2 7 9 5 9 6 6 3 3 4 4 5 4 6 6 5 6 8 13 11 10 10 10 9 5 3 2 2 3 3 4 6 8 9 9 7 3 2 5 7 8 6 6 4 3 1
3 5 1 3 5 10 7 4 0 3 2 3 3 2 3 4 7 10 13 13 10 10 9 8 8 8 8 7 5 4 4 3 5 6 6 7 10 10 9 3 3 4 5 4 2 4 5 3 2
3 2 2 3 4 4 3 4 4 4 2 1 3 3 5 6 7 6 7 7 7 6 6 6 8 9 9 9 7 9 6 5 4 4 5 7 10 11 10 10 8 5 4 5 4 3 2 3 5
4 3 3 3 5 3 2 4 4 3 6 6 7 6 5 6 5 6 4 4 3 5 5 5 7 9 8 9 8 6 7 4 4 6 8 9 9 10 11 10 9 9 5 6 6 3 5 5 3
6 6 8 6 4 3 4 4 5 7 6 5 5 7 8 8 7 6 6 5 4 2 4 6 7 7 7 6 7 8 7 6 5 5 6 5 4 6 9 9 8 8 8 6 5 5 5 2 2
6 7 4 5 5 5 0 2 8 6 6 13 15 10 10 8 7 7 7 6 4 2 3 4 5 6 6 7 7 6 7 6 6 5 3 5 5 4 9 8 8 5 6 8 8 3 4 4 3
3 6 7 4 3 4 4 5 3 3 2 1 5 9 8 8 8 8 8 6 4 3 3 4 5 5 5 5 5 5 6 3 3 3 3 3 3 3 6 7 8 9 9 7 7 6 5 5 3
3 2 3 7 3 2 3 5 4 2 3 3 6 7 10 11 11 10 5 5 5 4 3 5 5 4 3 3 3 3 4 5 4 4 3 2 4 4 6 6 7 8 9 8 7 5 7 5 5
3 5 4 4 2 4 4 4 6 4 7 6 8 10 10 7 7 6 6 6 4 4 3 3 3 3 2 2 2 1 2 3 3 4 5 5 4 5 6 7 8 8 9 8 8 5 4 4 4
3 2 6 5 5 6 1 6 6 10 13 13 11 12 9 9 8 6 6 6 6 5 5 4 3 4 4 3 2 1 1 1 2 2 2 3 4 5 5 6 6 6 7 7 6 7 7 7 6
0 3 5 6 5 1 4 8 3 7 8 9 11 10 8 5 7 8 9 8 8 7 6 6 5 5 5 4 3 3 4 2 3 4 4 3 4 4 4 5 6 7 7 6 6 7 6 6 8
Wind_Direction
97 133 97 43 51 55 287 280 298 357 10 243 87 84 177 111 163 218 28 153 125 143 143 152 154 151 145 137 135 131 129 129 129 126 125 125 124 122 121 120 119 115 108 102 99 101 103 106 111
120 117 42 71 84 55 271 273 254 216 144 36 72 10 26 64 89 98 114 138 132 139 129 146 154 157 156 146 142 137 136 137 136 134 133 130 127 124 122 122 123 119 114 111 110 110 110 119 133
132 49 85 93 109 178 220 226 249 295 264 32 35 107 13 26 66 144 106 125 124 126 111 156 157 161 159 146 134 130 131 133 134 133 131 127 123 120 118 117 121 124 124 126 126 120 115 123 109
114 15 33 89 228 253 216 228 239 272 33 105 130 50 63 12 151 144 130 128 122 123 126 167 160 161 159 147 137 135 136 137 138 138 134 130 125 119 116 116 118 126 131 141 151 160 213 273 309
39 59 58 354 258 262 262 252 197 151 142 127 112 62 56 29 77 119 131 130 129 131 134 157 162 164 161 152 149 150 152 149 148 147 140 132 124 123 121 123 129 173 222 228 246 260 272 282 287
43 100 58 302 267 278 279 268 175 141 118 124 97 75 48 100 93 116 103 104 114 143 125 146 165 164 165 160 155 154 153 155 155 158 154 147 140 140 169 231 266 273 279 286 284 285 289 296 302
115 83 189 230 268 303 313 319 113 130 120 90 125 102 99 75 104 107 95 85 94 111 114 132 148 170 168 166 161 162 162 168 171 169 168 168 173 198 236 264 274 278 282 283 284 292 298 297 298
104 93 51 238 273 61 315 72 286 66 66 46 48 156 194 147 115 109 109 118 110 119 155 169 163 163 162 166 176 178 179 180 186 193 205 196 200 218 261 281 298 290 288 287 287 290 293 295 298
122 61 4 324 359 317 355 88 25 80 72 55 353 105 121 131 121 118 126 135 154 176 183 183 179 187 177 178 189 187 188 188 194 195 208 221 207 277 275 261 262 267 281 282 281 283 286 288 288
88 97 228 226 292 4 17 71 30 59 46 52 67 91 106 120 135 144 157 162 179 185 188 210 217 230 309 284 261 179 199 190 187 186 206 203 224 231 244 247 257 266 267 273 275 276 278 285 286
165 176 195 280 187 194 4 68 52 84 35 342 151 126 119 118 105 126 147 117 181 166 192 195 194 212 216 238 152 339 319 282 213 194 192 212 233 266 272 283 288 288 276 273 279 282 273 276 278
19 257 229 292 187 138 114 100 54 47 33 58 88 102 93 85 69 54 236 167 174 182 193 187 194 186 186 93 180 177 191 307 308 317 283 258 271 265 269 257 261 258 263 272 266 272 266 262 259
73 317 173 304 90 92 76 56 114 51 42 72 79 65 60 57 44 32 18 23 132 49 326 266 210 204 186 195 193 180 206 212 200 240 243 225 262 269 268 269 261 264 269 260 272 275 281 280 274
295 300 350 345 31 130 105 154 67 2 78 66 71 65 56 52 37 29 26 19 21 12 1 344 235 200 198 206 192 217 192 215 204 217 225 226 226 254 260 279 279 273 234 260 270 268 271 278 262
25 26 354 344 312 117 131 36 42 59 37 82 65 67 59 48 42 34 24 25 10 2 347 356 330 247 214 208 197 208 186 195 230 231 213 227 213 223 239 243 252 257 251 271 264 278 276 282 288
54 49 55 298 355 2 95 136 88 52 57 72 76 64 56 52 46 29 25 19 11 9 5 1 11 6 20 344 226 228 195 198 260 269 262 246 244 233 237 239 237 243 268 307 277 273 283 267 265
12 119 360 324 18 265 55 103 72 71 66 62 43 55 52 43 35 23 19 15 14 11 20 16 11 11 2 12 26 63 66 51 40 39 23 337 276 251 231 240 254 225 178 229 265 269 237 311 341
216 65 265 28 349 54 84 95 59 51 69 46 37 34 38 37 24 9 24 19 13 18 18 24 22 19 11 19 61 74 71 57 35 15 360 343 317 284 239 243 228 192 184 179 192 308 314 127 217
147 112 101 8 338 73 51 87 54 56 60 41 39 21 24 27 345 28 30 27 24 37 40 27 32 11 19 40 34 43 59 60 37 21 360 344 357 338 324 251 171 190 162 146 154 152 131 13 172
92 118 14 129 20 85 69 78 54 33 29 12 10 11 17 357 2 6 21 41 37 32 26 16 26 25 19 26 10 36 59 71 50 13 17 11 360 351 347 351 265 169 147 170 155 180 176 183 149
39 122 88 99 78 48 111 18 340 30 57 32 26 324 310 344 356 1 10 15 16 22 12 18 28 35 34 20 25 28 40 28 22 14 13 8 10 2 352 336 309 320 318 347 236 200 154 163 238
116 192 134 116 88 192 159 259 272 210 254 270 276 292 308 330 352 354 351 353 356 1 0 22 28 26 26 23 46 50 49 42 4 355 0 3 8 8 3 6 347 308 276 272 245 203 183 185 239
192 111 62 38 73 73 323 88 271 136 237 222 239 245 248 248 243 256 266 275 304 340 4 23 39 39 30 35 35 48 52 29 13 17 16 6 6 7 5 5 356 357 338 315 296 253 225 218 217
139 79 45 51 69 30 283 119 266 198 211 169 218 225 226 226 226 237 252 260 260 344 33 33 39 29 26 46 53 57 52 37 39 23 21 358 346 355 2 2 7 1 351 337 319 306 275 252 2
73 60 355 357 11 222 45 53 245 238 224 174 193 201 214 216 215 218 221 215 201 133 51 59 61 48 31 42 44 58 57 46 39 21 16 10 358 355 353 354 357 357 354 353 334 283 329 331 320
74 140 150 214 205 260 324 250 253 239 181 90 116 184 193 206 213 219 216 205 198 168 128 101 88 81 59 51 43 37 57 53 39 19 3 4 360 335 339 355 2 1 356 2 18 28 14 337 321
175 73 157 104 32 68 251 297 317 88 105 136 173 189 210 207 206 213 200 199 203 205 182 151 134 124 107 95 62 35 28 35 21 16 20 350 343 346 355 4 5 4 5 4 356 12 15 17 6
120 147 70 11 215 250 298 270 241 229 217 206 215 224 231 226 226 210 200 207 218 224 231 187 147 158 168 134 102 60 26 13 2 7 8 2 356 355 358 1 4 4 8 7 9 356 353 357 354
41 39 55 118 138 174 229 264 221 207 201 207 216 227 223 218 213 193 198 205 207 217 214 208 207 217 223 210 207 272 333 333 326 329 329 342 333 355 357 350 352 359 358 356 3 354 356 351 345
92 156 137 130 225 160 143 270 256 240 210 193 223 230 236 203 200 182 189 192 202 203 202 212 225 231 231 226 221 246 268 273 299 299 302 315 331 333 340 343 344 346 345 342 344 343 340 344 343